Location: Bailleul
(50.3375°N, 2.8513°E)
Time: 08:08:03
(UTC+00:00)

Meteor 2-5 Rocket - Pass Details

Date: 16 June 2021
Orbit: 833 x 911 km, 81.2° (Epoch: 01 August)

Event Time Altitude Azimuth Distance (km) Brightness Sun altitude
Exits shadow 22:24:26 14° 195° (SSW) 2,178 5.4 -13.9°
Maximum altitude 22:29:17 82° 282° (WNW) 855 3.7 -14.2°
Drops below altitude 10° 22:34:55 10° 11° (N) 2,487 7.1 -14.5°
Sets 22:37:23 0° 12° (NNE) 3,437 8.0 -14.6°
